Time,TemperatureF,DewpointF,PressureIn,WindDirection,WindDirectionDegrees,WindSpeedMPH,WindSpeedGustMPH,Humidity,HourlyPrecipIn,Conditions,Clouds,dailyrainin,SoftwareType,DateUTC
2013-03-11 00:11:00,54.0,43.3,29.78,East,90,0.0,-999.0,67,-99.99,,,0.00,Acu-Link.com,2013-03-11 04:11:00,
2013-03-11 00:56:00,54.1,42.6,29.77,East,90,0.0,-999.0,65,-99.99,,,0.00,Acu-Link.com,2013-03-11 04:56:00,
2013-03-11 01:11:00,54.5,43.4,29.76,East,90,0.0,-999.0,66,-99.99,,,0.00,Acu-Link.com,2013-03-11 05:11:00,
2013-03-11 01:27:00,54.1,43.0,29.75,ESE,112,0.0,-999.0,66,-99.99,,,0.00,Acu-Link.com,2013-03-11 05:27:00,
2013-03-11 01:57:00,53.6,44.1,29.75,WNW,292,0.0,-999.0,70,-99.99,,,0.00,Acu-Link.com,2013-03-11 05:57:00,
2013-03-11 02:12:00,53.4,43.9,29.74,ESE,112,0.0,-999.0,70,-99.99,,,0.00,Acu-Link.com,2013-03-11 06:12:00,
2013-03-11 02:27:00,55.0,43.0,29.74,NNW,337,4.2,-999.0,64,-99.99,,,0.00,Acu-Link.com,2013-03-11 06:27:00,
2013-03-11 02:42:00,55.9,43.5,29.73,NE,45,4.7,-999.0,63,-99.99,,,0.00,Acu-Link.com,2013-03-11 06:42:00,
2013-03-11 02:57:00,56.1,43.3,29.73,WSW,247,0.0,-999.0,62,-99.99,,,0.00,Acu-Link.com,2013-03-11 06:57:00,
2013-03-11 03:12:00,56.3,42.6,29.72,NW,315,3.7,-999.0,60,-99.99,,,0.00,Acu-Link.com,2013-03-11 07:12:00,
2013-03-11 03:27:00,56.3,43.0,29.71,SW,225,0.0,-999.0,61,-99.99,,,0.00,Acu-Link.com,2013-03-11 07:27:00,
2013-03-11 03:43:00,55.9,43.9,29.70,South,180,0.0,-999.0,64,-99.99,,,0.00,Acu-Link.com,2013-03-11 07:43:00,
2013-03-11 03:58:00,55.8,44.2,29.69,WSW,247,3.7,-999.0,65,-99.99,,,0.00,Acu-Link.com,2013-03-11 07:58:00,
2013-03-11 04:13:00,56.3,43.9,29.70,North,0,0.0,-999.0,63,-99.99,,,0.00,Acu-Link.com,2013-03-11 08:13:00,
2013-03-11 04:28:00,55.6,42.8,29.68,West,270,0.0,-999.0,62,-99.99,,,0.00,Acu-Link.com,2013-03-11 08:28:00,
2013-03-11 04:43:00,55.6,42.8,29.67,West,270,3.2,-999.0,62,-99.99,,,0.00,Acu-Link.com,2013-03-11 08:43:00,
2013-03-11 04:58:00,54.9,42.5,29.67,West,270,0.0,-999.0,63,-99.99,,,0.00,Acu-Link.com,2013-03-11 08:58:00,
2013-03-11 05:14:00,55.0,42.6,29.67,WSW,247,0.0,-999.0,63,-99.99,,,0.00,Acu-Link.com,2013-03-11 09:14:00,
2013-03-11 05:29:00,53.8,43.1,29.67,NE,45,0.0,-999.0,67,-99.99,,,0.00,Acu-Link.com,2013-03-11 09:29:00,
2013-03-11 05:44:00,53.8,42.7,29.67,NNE,22,0.0,-999.0,66,-99.99,,,0.00,Acu-Link.com,2013-03-11 09:44:00,
2013-03-11 05:59:00,52.7,42.8,29.68,SSE,157,0.0,-999.0,69,-99.99,,,0.00,Acu-Link.com,2013-03-11 09:59:00,
2013-03-11 06:14:00,52.0,42.5,29.68,East,90,0.0,-999.0,70,-99.99,,,0.00,Acu-Link.com,2013-03-11 10:14:00,
2013-03-11 06:29:00,51.6,43.2,29.68,NW,315,0.0,-999.0,73,-99.99,,,0.00,Acu-Link.com,2013-03-11 10:29:00,
2013-03-11 06:44:00,51.3,43.6,29.68,ENE,67,0.0,-999.0,75,-99.99,,,0.00,Acu-Link.com,2013-03-11 10:44:00,
2013-03-11 07:00:00,50.7,43.4,29.69,East,90,0.0,-999.0,76,-99.99,,,0.00,Acu-Link.com,2013-03-11 11:00:00,
2013-03-11 07:15:00,50.9,43.3,29.69,East,90,0.0,-999.0,75,-99.99,,,0.00,Acu-Link.com,2013-03-11 11:15:00,
2013-03-11 07:30:00,51.1,43.5,29.69,WSW,247,0.0,-999.0,75,-99.99,,,0.00,Acu-Link.com,2013-03-11 11:30:00,
2013-03-11 07:45:00,50.4,44.5,29.69,ENE,67,0.0,-999.0,80,-99.99,,,0.00,Acu-Link.com,2013-03-11 11:45:00,
2013-03-11 08:00:00,50.4,45.8,29.69,ENE,67,0.0,-999.0,84,-99.99,,,0.00,Acu-Link.com,2013-03-11 12:00:00,
2013-03-11 08:15:00,50.2,46.8,29.69,SSE,157,0.0,-999.0,88,-99.99,,,0.00,Acu-Link.com,2013-03-11 12:15:00,
2013-03-11 08:30:00,50.2,49.7,29.69,East,90,0.0,-999.0,98,-99.99,,,0.00,Acu-Link.com,2013-03-11 12:30:00,
2013-03-11 08:45:00,50.2,49.7,29.70,South,180,0.0,-999.0,98,-99.99,,,0.00,Acu-Link.com,2013-03-11 12:45:00,
2013-03-11 09:00:00,50.5,50.0,29.70,NE,45,0.0,-999.0,98,-99.99,,,0.00,Acu-Link.com,2013-03-11 13:00:00,
2013-03-11 09:16:00,51.1,50.6,29.71,ENE,67,0.0,-999.0,98,-99.99,,,0.00,Acu-Link.com,2013-03-11 13:16:00,
2013-03-11 09:31:00,52.2,51.7,29.71,ENE,67,0.0,-999.0,98,-99.99,,,0.00,Acu-Link.com,2013-03-11 13:31:00,
2013-03-11 10:01:00,55.2,54.6,29.71,WNW,292,0.0,-999.0,98,-99.99,,,0.00,Acu-Link.com,2013-03-11 14:01:00,
2013-03-11 10:46:00,57.9,51.1,29.69,ESE,112,0.0,-999.0,78,-99.99,,,0.00,Acu-Link.com,2013-03-11 14:46:00,
2013-03-11 11:02:00,59.9,49.7,29.69,WNW,292,0.0,-999.0,69,-99.99,,,0.00,Acu-Link.com,2013-03-11 15:02:00,
2013-03-11 11:17:00,61.7,49.8,29.68,West,270,0.0,-999.0,65,-99.99,,,0.00,Acu-Link.com,2013-03-11 15:17:00,
2013-03-11 11:32:00,63.1,49.4,29.68,West,270,0.0,-999.0,61,-99.99,,,0.00,Acu-Link.com,2013-03-11 15:32:00,
2013-03-11 11:47:00,64.0,49.4,29.66,East,90,4.7,-999.0,59,-99.99,,,0.00,Acu-Link.com,2013-03-11 15:47:00,
2013-03-11 12:02:00,64.8,51.0,29.65,West,270,0.0,-999.0,61,-99.99,,,0.00,Acu-Link.com,2013-03-11 16:02:00,
2013-03-11 12:17:00,65.5,57.4,29.65,East,90,4.7,-999.0,75,-99.99,,,0.00,Acu-Link.com,2013-03-11 16:17:00,
2013-03-11 12:33:00,65.1,52.6,29.64,South,180,1.7,-999.0,64,-99.99,,,0.00,Acu-Link.com,2013-03-11 16:33:00,
2013-03-11 12:48:00,64.9,50.7,29.64,SSE,157,0.0,-999.0,60,-99.99,,,0.00,Acu-Link.com,2013-03-11 16:48:00,
2013-03-11 13:03:00,64.9,52.4,29.63,ESE,112,6.3,-999.0,64,-99.99,,,0.00,Acu-Link.com,2013-03-11 17:03:00,
2013-03-11 13:18:00,64.9,61.6,29.62,SSW,202,1.7,-999.0,89,-99.99,,,0.00,Acu-Link.com,2013-03-11 17:18:00,
2013-03-11 13:34:00,65.3,62.9,29.62,East,90,6.8,-999.0,92,-99.99,,,0.00,Acu-Link.com,2013-03-11 17:34:00,
2013-03-11 13:49:00,66.4,55.5,29.61,SSE,157,2.2,-999.0,68,-99.99,,,0.00,Acu-Link.com,2013-03-11 17:49:00,
2013-03-11 14:04:00,65.7,57.6,29.59,SW,225,2.2,-999.0,75,-99.99,,,0.00,Acu-Link.com,2013-03-11 18:04:00,
2013-03-11 14:19:00,65.7,50.5,29.58,WSW,247,3.2,-999.0,58,-99.99,,,0.00,Acu-Link.com,2013-03-11 18:19:00,
2013-03-11 14:34:00,65.3,51.5,29.58,West,270,7.3,-999.0,61,-99.99,,,0.00,Acu-Link.com,2013-03-11 18:34:00,
2013-03-11 14:49:00,65.3,54.1,29.58,WSW,247,2.7,-999.0,67,-99.99,,,0.00,Acu-Link.com,2013-03-11 18:49:00,
2013-03-11 15:05:00,65.5,55.1,29.59,West,270,1.1,-999.0,69,-99.99,,,0.00,Acu-Link.com,2013-03-11 19:05:00,
2013-03-11 15:20:00,65.7,54.8,29.57,NNE,22,3.7,-999.0,68,-99.99,,,0.00,Acu-Link.com,2013-03-11 19:20:00,
2013-03-11 15:35:00,65.5,57.4,29.56,North,0,0.0,-999.0,75,-99.99,,,0.00,Acu-Link.com,2013-03-11 19:35:00,
2013-03-11 15:50:00,64.8,64.2,29.56,WSW,247,0.0,-999.0,98,-99.99,,,0.00,Acu-Link.com,2013-03-11 19:50:00,
2013-03-11 16:05:00,64.6,64.0,29.55,SW,225,4.2,-999.0,98,-99.99,,,0.00,Acu-Link.com,2013-03-11 20:05:00,
2013-03-11 16:20:00,64.0,63.4,29.53,ENE,67,4.2,-999.0,98,-99.99,,,0.00,Acu-Link.com,2013-03-11 20:20:00,
2013-03-11 16:35:00,63.5,62.9,29.49,North,0,2.7,-999.0,98,-99.99,,,0.00,Acu-Link.com,2013-03-11 20:35:00,
2013-03-11 16:50:00,62.8,62.2,29.52,WNW,292,7.3,-999.0,98,-99.99,,,0.00,Acu-Link.com,2013-03-11 20:50:00,
2013-03-11 17:05:00,62.6,62.0,29.54,West,270,2.2,-999.0,98,-99.99,,,0.00,Acu-Link.com,2013-03-11 21:05:00,
2013-03-11 17:21:00,62.1,61.5,29.53,South,180,7.8,-999.0,98,-99.99,,,0.00,Acu-Link.com,2013-03-11 21:21:00,
2013-03-11 17:36:00,61.9,61.3,29.51,North,0,2.2,-999.0,98,-99.99,,,0.00,Acu-Link.com,2013-03-11 21:36:00,
2013-03-11 18:06:00,61.2,60.6,29.51,ESE,112,6.8,-999.0,98,-99.99,,,0.00,Acu-Link.com,2013-03-11 22:06:00,
2013-03-11 18:21:00,60.8,60.2,29.51,NNE,22,3.7,-999.0,98,-99.99,,,0.00,Acu-Link.com,2013-03-11 22:21:00,
2013-03-11 18:36:00,60.6,60.0,29.50,West,270,0.0,-999.0,98,-99.99,,,0.00,Acu-Link.com,2013-03-11 22:36:00,
2013-03-11 18:52:00,60.4,59.8,29.50,South,180,2.2,-999.0,98,-99.99,,,0.00,Acu-Link.com,2013-03-11 22:52:00,
2013-03-11 19:07:00,59.7,59.1,29.50,NW,315,2.2,-999.0,98,-99.99,,,0.00,Acu-Link.com,2013-03-11 23:07:00,
2013-03-11 19:37:00,59.0,58.4,29.50,NNW,337,5.3,-999.0,98,-99.99,,,0.00,Acu-Link.com,2013-03-11 23:37:00,
2013-03-11 20:07:00,59.9,59.3,29.48,West,270,3.7,-999.0,98,-99.99,,,0.00,Acu-Link.com,2013-03-12 00:07:00,
2013-03-11 20:22:00,60.1,59.5,29.50,SSE,157,4.2,-999.0,98,-99.99,,,0.00,Acu-Link.com,2013-03-12 00:22:00,
2013-03-11 20:37:00,60.4,59.8,29.50,West,270,3.2,-999.0,98,-99.99,,,0.00,Acu-Link.com,2013-03-12 00:37:00,
2013-03-11 21:08:00,60.3,59.7,29.51,West,270,4.2,-999.0,98,-99.99,,,0.00,Acu-Link.com,2013-03-12 01:08:00,
2013-03-11 21:23:00,60.1,59.5,29.50,West,270,3.7,-999.0,98,-99.99,,,0.00,Acu-Link.com,2013-03-12 01:23:00,
2013-03-11 21:38:00,60.1,59.5,29.50,West,270,2.7,-999.0,98,-99.99,,,0.00,Acu-Link.com,2013-03-12 01:38:00,
2013-03-11 21:53:00,59.9,59.3,29.51,West,270,4.7,-999.0,98,-99.99,,,0.00,Acu-Link.com,2013-03-12 01:53:00,
2013-03-11 22:08:00,58.8,58.2,29.51,West,270,5.3,-999.0,98,-99.99,,,0.00,Acu-Link.com,2013-03-12 02:08:00,
2013-03-11 22:23:00,57.6,57.0,29.51,WSW,247,4.2,-999.0,98,-99.99,,,0.01,Acu-Link.com,2013-03-12 02:23:00,
2013-03-11 22:38:00,55.6,55.0,29.54,SW,225,0.0,-999.0,98,-99.99,,,0.01,Acu-Link.com,2013-03-12 02:38:00,
2013-03-11 22:54:00,54.1,53.5,29.53,SSW,202,0.0,-999.0,98,-99.99,,,0.03,Acu-Link.com,2013-03-12 02:54:00,
2013-03-11 23:09:00,53.6,53.0,29.53,WSW,247,1.7,-999.0,98,-99.99,,,0.05,Acu-Link.com,2013-03-12 03:09:00,
2013-03-11 23:24:00,53.2,52.6,29.52,SSW,202,0.0,-999.0,98,-99.99,,,0.06,Acu-Link.com,2013-03-12 03:24:00,
2013-03-11 23:39:00,53.1,52.5,29.53,West,270,0.0,-999.0,98,-99.99,,,0.07,Acu-Link.com,2013-03-12 03:39:00,
2013-03-11 23:54:00,52.9,52.4,29.53,ENE,67,0.0,-999.0,98,-99.99,,,0.11,Acu-Link.com,2013-03-12 03:54:00,